Time,TemperatureF,DewpointF,PressureIn,WindDirection,WindDirectionDegrees,WindSpeedMPH,WindSpeedGustMPH,Humidity,HourlyPrecipIn,Conditions,Clouds,dailyrainin,SolarRadiationWatts/m^2,SoftwareType,DateUTC
2017-08-17 00:01:00,72.9,55.8,29.92,South,187,0.0,0.0,55,0.00,,,0.00,0.00,Weather logger V3.0.,2017-08-17 07:01:00,
2017-08-17 00:06:00,72.7,55.2,29.93,SSE,160,0.0,0.0,54,0.00,,,0.00,0.00,Weather logger V3.0.,2017-08-17 07:06:00,
2017-08-17 00:11:00,72.7,56.7,29.93,South,191,0.0,0.0,57,0.00,,,0.00,0.00,Weather logger V3.0.,2017-08-17 07:11:00,
2017-08-17 00:16:00,72.5,56.5,29.92,South,186,0.0,0.0,57,0.00,,,0.00,0.00,Weather logger V3.0.,2017-08-17 07:16:00,
2017-08-17 00:21:00,72.5,55.4,29.92,South,190,0.0,0.0,55,0.00,,,0.00,0.00,Weather logger V3.0.,2017-08-17 07:21:00,
2017-08-17 00:26:00,72.5,55.4,29.93,South,190,0.0,0.0,55,0.00,,,0.00,0.00,Weather logger V3.0.,2017-08-17 07:26:00,
2017-08-17 00:32:00,72.3,55.8,29.93,South,188,0.0,0.0,56,0.00,,,0.00,0.00,Weather logger V3.0.,2017-08-17 07:32:00,
2017-08-17 00:37:00,72.3,55.8,29.93,South,189,0.0,0.0,56,0.00,,,0.00,0.00,Weather logger V3.0.,2017-08-17 07:37:00,
2017-08-17 00:42:00,72.0,55.4,29.93,South,190,0.0,0.0,56,0.00,,,0.00,0.00,Weather logger V3.0.,2017-08-17 07:42:00,
2017-08-17 00:47:00,71.8,56.7,29.93,South,186,0.0,0.0,59,0.00,,,0.00,0.00,Weather logger V3.0.,2017-08-17 07:47:00,
2017-08-17 00:53:00,71.6,58.8,29.93,South,190,0.0,0.0,64,0.00,,,0.00,0.00,Weather logger V3.0.,2017-08-17 07:53:00,
2017-08-17 00:58:00,71.2,57.6,29.93,South,187,0.0,0.0,62,0.00,,,0.00,0.00,Weather logger V3.0.,2017-08-17 07:58:00,
2017-08-17 01:03:00,71.1,56.5,29.93,South,187,0.0,0.0,60,0.00,,,0.00,0.00,Weather logger V3.0.,2017-08-17 08:03:00,
2017-08-17 01:08:00,70.9,55.9,29.93,South,187,0.0,0.0,59,0.00,,,0.00,0.00,Weather logger V3.0.,2017-08-17 08:08:00,
2017-08-17 01:13:00,70.5,56.8,29.93,South,188,0.0,0.0,62,0.00,,,0.00,0.00,Weather logger V3.0.,2017-08-17 08:13:00,
2017-08-17 01:18:00,70.2,58.3,29.93,South,186,0.0,0.0,66,0.00,,,0.00,0.00,Weather logger V3.0.,2017-08-17 08:18:00,
2017-08-17 01:23:00,69.8,60.1,29.93,South,191,0.0,0.0,71,0.00,,,0.00,0.00,Weather logger V3.0.,2017-08-17 08:23:00,
2017-08-17 01:28:00,69.4,58.5,29.94,South,189,0.0,0.0,68,0.00,,,0.00,0.00,Weather logger V3.0.,2017-08-17 08:28:00,
2017-08-17 01:33:00,69.1,56.5,29.94,South,190,0.0,0.0,64,0.00,,,0.00,0.00,Weather logger V3.0.,2017-08-17 08:33:00,
2017-08-17 01:39:00,68.9,56.3,29.93,South,188,0.0,0.0,64,0.00,,,0.00,0.00,Weather logger V3.0.,2017-08-17 08:39:00,
2017-08-17 01:45:00,68.7,56.1,29.94,South,188,0.0,0.0,64,0.00,,,0.00,0.00,Weather logger V3.0.,2017-08-17 08:45:00,
2017-08-17 01:46:00,68.5,56.3,29.94,South,188,0.0,0.0,65,0.00,,,0.00,0.00,Weather logger V3.0.,2017-08-17 08:46:00,
2017-08-17 01:52:00,68.5,57.6,29.93,South,189,0.0,0.0,68,0.00,,,0.00,0.00,Weather logger V3.0.,2017-08-17 08:52:00,
2017-08-17 01:57:00,68.4,56.7,29.94,South,187,0.0,0.0,66,0.00,,,0.00,0.00,Weather logger V3.0.,2017-08-17 08:57:00,
2017-08-17 02:02:00,68.4,56.7,29.94,South,187,0.0,0.0,66,0.00,,,0.00,0.00,Weather logger V3.0.,2017-08-17 09:02:00,
2017-08-17 02:07:00,68.4,57.0,29.94,South,190,0.0,0.0,67,0.00,,,0.00,0.00,Weather logger V3.0.,2017-08-17 09:07:00,
2017-08-17 02:12:00,68.0,57.6,29.94,South,187,0.0,0.0,69,0.00,,,0.00,0.00,Weather logger V3.0.,2017-08-17 09:12:00,
2017-08-17 02:17:00,67.8,56.5,29.95,South,187,0.0,0.0,67,0.00,,,0.00,0.00,Weather logger V3.0.,2017-08-17 09:17:00,
2017-08-17 02:22:00,67.6,57.2,29.94,South,188,0.0,0.0,69,0.00,,,0.00,0.00,Weather logger V3.0.,2017-08-17 09:22:00,
2017-08-17 02:27:00,67.5,56.1,29.94,South,182,0.0,0.0,67,0.00,,,0.00,0.00,Weather logger V3.0.,2017-08-17 09:27:00,
2017-08-17 02:32:00,67.5,56.1,29.94,South,190,0.0,0.0,67,0.00,,,0.00,0.00,Weather logger V3.0.,2017-08-17 09:32:00,
2017-08-17 02:37:00,67.3,56.5,29.94,South,189,0.0,0.0,68,0.00,,,0.00,0.00,Weather logger V3.0.,2017-08-17 09:37:00,
2017-08-17 02:42:00,67.3,57.2,29.95,South,187,0.0,0.0,70,0.00,,,0.00,0.00,Weather logger V3.0.,2017-08-17 09:42:00,
2017-08-17 02:47:00,67.1,57.0,29.95,South,185,0.0,0.0,70,0.00,,,0.00,0.00,Weather logger V3.0.,2017-08-17 09:47:00,
2017-08-17 02:52:00,66.9,56.5,29.95,South,188,0.0,0.0,69,0.00,,,0.00,0.00,Weather logger V3.0.,2017-08-17 09:52:00,
2017-08-17 02:58:00,66.9,56.8,29.95,South,187,0.0,0.0,70,0.00,,,0.00,0.00,Weather logger V3.0.,2017-08-17 09:58:00,
2017-08-17 03:04:00,66.7,55.9,29.96,South,190,0.0,0.0,68,0.00,,,0.00,0.00,Weather logger V3.0.,2017-08-17 10:04:00,
2017-08-17 03:09:00,66.6,55.8,29.95,South,187,0.0,0.0,68,0.00,,,0.00,0.00,Weather logger V3.0.,2017-08-17 10:09:00,
2017-08-17 03:14:00,66.4,55.2,29.95,South,187,0.0,0.0,67,0.00,,,0.00,0.00,Weather logger V3.0.,2017-08-17 10:14:00,
2017-08-17 03:19:00,66.4,56.3,29.96,SSW,204,0.0,0.0,70,0.00,,,0.00,0.00,Weather logger V3.0.,2017-08-17 10:19:00,
2017-08-17 03:24:00,66.0,57.9,29.96,South,188,0.0,0.0,75,0.00,,,0.00,0.00,Weather logger V3.0.,2017-08-17 10:24:00,
2017-08-17 03:29:00,65.8,58.1,29.96,South,185,0.0,0.0,76,0.00,,,0.00,0.00,Weather logger V3.0.,2017-08-17 10:29:00,
2017-08-17 03:34:00,65.5,57.0,29.96,South,187,0.0,0.0,74,0.00,,,0.00,0.00,Weather logger V3.0.,2017-08-17 10:34:00,
2017-08-17 03:39:00,65.1,56.7,29.97,South,187,0.0,0.0,74,0.00,,,0.00,0.00,Weather logger V3.0.,2017-08-17 10:39:00,
2017-08-17 03:44:00,64.9,56.8,29.96,South,189,0.0,0.0,75,0.00,,,0.00,0.00,Weather logger V3.0.,2017-08-17 10:44:00,
2017-08-17 03:50:00,64.6,55.8,29.97,South,187,0.0,0.0,73,0.00,,,0.00,0.00,Weather logger V3.0.,2017-08-17 10:50:00,
2017-08-17 03:55:00,64.4,55.2,29.96,South,188,0.0,0.0,72,0.00,,,0.00,0.00,Weather logger V3.0.,2017-08-17 10:55:00,
2017-08-17 04:00:00,64.2,55.4,29.96,South,187,0.0,0.0,73,0.00,,,0.00,0.00,Weather logger V3.0.,2017-08-17 11:00:00,
2017-08-17 04:05:00,64.2,55.4,29.98,South,187,0.0,0.0,73,0.00,,,0.00,0.00,Weather logger V3.0.,2017-08-17 11:05:00,
2017-08-17 04:10:00,64.0,55.6,29.97,South,187,0.0,0.0,74,0.00,,,0.00,0.00,Weather logger V3.0.,2017-08-17 11:10:00,
2017-08-17 04:16:00,64.0,56.3,29.97,South,189,0.0,0.0,76,0.00,,,0.00,0.00,Weather logger V3.0.,2017-08-17 11:16:00,
2017-08-17 04:21:00,63.9,55.4,29.97,South,187,0.0,0.0,74,0.00,,,0.00,0.00,Weather logger V3.0.,2017-08-17 11:21:00,
2017-08-17 04:26:00,63.9,55.4,29.97,South,186,0.0,0.0,74,0.00,,,0.00,0.00,Weather logger V3.0.,2017-08-17 11:26:00,
2017-08-17 04:32:00,63.7,54.5,29.97,South,188,0.0,0.0,72,0.00,,,0.00,0.00,Weather logger V3.0.,2017-08-17 11:32:00,
2017-08-17 04:38:00,63.5,54.3,29.97,South,188,0.0,0.0,72,0.00,,,0.00,0.00,Weather logger V3.0.,2017-08-17 11:38:00,
2017-08-17 04:43:00,63.5,55.0,29.97,South,191,0.0,0.0,74,0.00,,,0.00,0.00,Weather logger V3.0.,2017-08-17 11:43:00,
2017-08-17 04:48:00,63.1,56.5,29.98,South,186,0.0,0.0,79,0.00,,,0.00,0.00,Weather logger V3.0.,2017-08-17 11:48:00,
2017-08-17 04:53:00,63.0,56.3,29.97,South,186,0.0,0.0,79,0.00,,,0.00,0.00,Weather logger V3.0.,2017-08-17 11:53:00,
2017-08-17 04:58:00,62.8,55.9,29.98,South,188,0.0,0.0,78,0.00,,,0.00,0.00,Weather logger V3.0.,2017-08-17 11:58:00,
2017-08-17 05:03:00,62.6,55.8,29.98,South,187,0.0,0.0,78,0.00,,,0.00,0.00,Weather logger V3.0.,2017-08-17 12:03:00,
2017-08-17 05:08:00,62.4,55.6,29.98,South,187,0.0,0.0,78,0.00,,,0.00,0.00,Weather logger V3.0.,2017-08-17 12:08:00,
2017-08-17 05:13:00,62.1,54.9,29.97,South,187,0.0,0.0,77,0.00,,,0.00,0.00,Weather logger V3.0.,2017-08-17 12:13:00,
2017-08-17 05:18:00,61.9,54.3,29.98,South,185,0.0,0.0,76,0.00,,,0.00,0.00,Weather logger V3.0.,2017-08-17 12:18:00,
2017-08-17 05:23:00,61.9,54.0,29.98,South,187,0.0,0.0,75,0.00,,,0.00,0.00,Weather logger V3.0.,2017-08-17 12:23:00,
2017-08-17 05:29:00,61.9,53.6,29.98,South,186,0.0,0.0,74,0.00,,,0.00,0.00,Weather logger V3.0.,2017-08-17 12:29:00,
2017-08-17 05:34:00,61.9,53.6,29.98,South,187,0.0,0.0,74,0.00,,,0.00,0.00,Weather logger V3.0.,2017-08-17 12:34:00,
2017-08-17 05:39:00,61.9,53.2,29.99,South,187,0.0,0.0,73,0.00,,,0.00,0.00,Weather logger V3.0.,2017-08-17 12:39:00,
2017-08-17 05:44:00,62.1,53.4,29.99,South,187,0.0,0.0,73,0.00,,,0.00,0.00,Weather logger V3.0.,2017-08-17 12:44:00,
2017-08-17 05:50:00,62.1,52.9,29.99,South,187,0.0,0.0,72,0.00,,,0.00,0.00,Weather logger V3.0.,2017-08-17 12:50:00,
2017-08-17 05:55:00,62.1,54.5,29.99,South,187,0.0,0.0,76,0.00,,,0.00,0.00,Weather logger V3.0.,2017-08-17 12:55:00,
2017-08-17 06:00:00,62.1,54.9,29.99,South,187,0.0,0.0,77,0.00,,,0.00,0.00,Weather logger V3.0.,2017-08-17 13:00:00,
2017-08-17 06:05:00,61.9,54.7,29.99,South,187,0.0,0.0,77,0.00,,,0.00,0.54,Weather logger V3.0.,2017-08-17 13:05:00,
2017-08-17 06:10:00,61.7,54.1,29.99,South,189,0.0,0.0,76,0.00,,,0.00,2.66,Weather logger V3.0.,2017-08-17 13:10:00,
2017-08-17 06:16:00,61.5,55.4,30.00,South,189,0.0,0.0,80,0.00,,,0.00,4.54,Weather logger V3.0.,2017-08-17 13:16:00,
2017-08-17 06:21:00,61.2,55.9,30.00,South,187,0.0,0.0,83,0.00,,,0.00,7.67,Weather logger V3.0.,2017-08-17 13:21:00,
2017-08-17 06:26:00,61.0,55.4,30.00,South,187,0.0,0.0,82,0.00,,,0.00,10.45,Weather logger V3.0.,2017-08-17 13:26:00,
2017-08-17 06:31:00,60.8,55.0,30.01,South,187,0.0,0.0,81,0.00,,,0.00,15.92,Weather logger V3.0.,2017-08-17 13:31:00,
2017-08-17 06:36:00,60.6,55.2,30.01,South,187,0.0,0.0,82,0.00,,,0.00,17.78,Weather logger V3.0.,2017-08-17 13:36:00,
2017-08-17 06:41:00,60.6,54.9,30.01,South,188,0.0,0.0,81,0.00,,,0.00,19.56,Weather logger V3.0.,2017-08-17 13:41:00,
2017-08-17 06:46:00,60.4,54.3,30.00,South,190,0.0,0.0,80,0.00,,,0.00,21.17,Weather logger V3.0.,2017-08-17 13:46:00,
2017-08-17 06:51:00,60.6,54.9,30.01,South,189,0.0,0.0,81,0.00,,,0.00,22.90,Weather logger V3.0.,2017-08-17 13:51:00,
2017-08-17 06:56:00,60.6,54.5,30.01,SSW,194,0.0,0.0,80,0.00,,,0.00,24.68,Weather logger V3.0.,2017-08-17 13:56:00,
2017-08-17 07:01:00,60.8,54.3,30.01,South,191,0.0,0.0,79,0.00,,,0.00,26.29,Weather logger V3.0.,2017-08-17 14:01:00,
2017-08-17 07:06:00,61.0,54.9,30.01,South,190,0.0,0.0,80,0.00,,,0.00,27.51,Weather logger V3.0.,2017-08-17 14:06:00,
2017-08-17 07:11:00,61.2,54.3,30.01,South,187,0.0,0.0,78,0.00,,,0.00,28.50,Weather logger V3.0.,2017-08-17 14:11:00,
2017-08-17 07:17:00,61.3,54.1,30.01,South,188,0.0,0.0,77,0.00,,,0.00,29.55,Weather logger V3.0.,2017-08-17 14:17:00,
2017-08-17 07:22:00,61.5,54.7,30.02,South,189,0.0,0.0,78,0.00,,,0.00,30.59,Weather logger V3.0.,2017-08-17 14:22:00,
2017-08-17 07:27:00,61.9,55.0,30.02,South,189,0.0,0.0,78,0.00,,,0.00,31.41,Weather logger V3.0.,2017-08-17 14:27:00,
2017-08-17 07:32:00,62.1,55.2,30.02,SSW,209,0.0,0.0,78,0.00,,,0.00,32.28,Weather logger V3.0.,2017-08-17 14:32:00,
2017-08-17 07:37:00,62.2,54.3,30.02,SSW,192,0.0,0.0,75,0.00,,,0.00,33.28,Weather logger V3.0.,2017-08-17 14:37:00,
2017-08-17 07:42:00,62.8,54.0,30.02,South,188,0.0,0.0,73,0.00,,,0.00,34.58,Weather logger V3.0.,2017-08-17 14:42:00,
2017-08-17 07:47:00,63.0,54.1,30.03,SSW,192,0.0,0.0,73,0.00,,,0.00,36.06,Weather logger V3.0.,2017-08-17 14:47:00,
2017-08-17 07:52:00,63.5,55.8,30.02,SSW,193,0.0,0.0,76,0.00,,,0.00,38.45,Weather logger V3.0.,2017-08-17 14:52:00,
2017-08-17 07:57:00,64.2,55.8,30.03,South,189,0.0,0.0,74,0.00,,,0.00,40.83,Weather logger V3.0.,2017-08-17 14:57:00,
2017-08-17 08:02:00,64.9,56.1,30.03,South,190,0.0,0.0,73,0.00,,,0.00,42.83,Weather logger V3.0.,2017-08-17 15:02:00,
2017-08-17 08:07:00,65.5,55.9,30.03,SSW,194,0.0,0.0,71,0.00,,,0.00,45.30,Weather logger V3.0.,2017-08-17 15:07:00,
2017-08-17 08:13:00,66.2,54.1,30.03,South,190,0.0,0.0,65,0.00,,,0.00,47.39,Weather logger V3.0.,2017-08-17 15:13:00,
2017-08-17 08:18:00,67.1,53.8,30.04,South,185,0.0,0.0,62,0.00,,,0.00,49.43,Weather logger V3.0.,2017-08-17 15:18:00,
2017-08-17 08:23:00,68.0,51.8,30.03,SSW,196,0.0,0.0,56,0.00,,,0.00,50.69,Weather logger V3.0.,2017-08-17 15:23:00,
2017-08-17 08:28:00,68.7,52.0,30.03,South,191,0.0,0.0,55,0.00,,,0.00,51.90,Weather logger V3.0.,2017-08-17 15:28:00,
2017-08-17 08:33:00,69.3,52.5,30.03,South,187,0.0,0.0,55,0.00,,,0.00,52.94,Weather logger V3.0.,2017-08-17 15:33:00,
2017-08-17 08:38:00,69.8,52.5,30.04,South,188,0.0,0.0,54,0.00,,,0.00,54.29,Weather logger V3.0.,2017-08-17 15:38:00,
2017-08-17 08:43:00,70.2,52.3,30.03,SSW,193,0.0,0.0,53,0.00,,,0.00,55.20,Weather logger V3.0.,2017-08-17 15:43:00,
2017-08-17 08:48:00,70.5,51.6,30.04,South,180,0.0,0.0,51,0.00,,,0.00,56.85,Weather logger V3.0.,2017-08-17 15:48:00,
2017-08-17 08:53:00,70.7,51.8,30.03,South,188,0.0,0.0,51,0.00,,,0.00,59.24,Weather logger V3.0.,2017-08-17 15:53:00,
2017-08-17 08:58:00,71.1,52.2,30.04,South,188,0.0,0.0,51,0.00,,,0.00,62.54,Weather logger V3.0.,2017-08-17 15:58:00,
2017-08-17 09:04:00,71.4,51.8,30.04,South,187,0.0,0.0,50,0.00,,,0.00,70.09,Weather logger V3.0.,2017-08-17 16:04:00,
2017-08-17 09:09:00,71.8,52.2,30.04,South,188,0.0,0.0,50,0.00,,,0.00,134.82,Weather logger V3.0.,2017-08-17 16:09:00,
2017-08-17 09:14:00,72.0,53.4,30.04,South,189,0.0,0.0,52,0.00,,,0.00,149.28,Weather logger V3.0.,2017-08-17 16:14:00,
2017-08-17 09:19:00,72.5,50.0,30.04,South,187,0.0,0.0,45,0.00,,,0.00,163.77,Weather logger V3.0.,2017-08-17 16:19:00,
2017-08-17 09:24:00,73.6,49.1,30.03,South,187,0.0,0.0,42,0.00,,,0.00,177.86,Weather logger V3.0.,2017-08-17 16:24:00,
2017-08-17 09:29:00,74.7,49.5,30.04,South,190,0.0,0.0,41,0.00,,,0.00,193.27,Weather logger V3.0.,2017-08-17 16:29:00,
2017-08-17 09:34:00,75.7,49.8,30.05,SSW,194,0.0,0.0,40,0.00,,,0.00,208.23,Weather logger V3.0.,2017-08-17 16:34:00,
2017-08-17 09:39:00,76.6,48.6,30.04,South,186,0.0,0.0,37,0.00,,,0.00,223.40,Weather logger V3.0.,2017-08-17 16:39:00,
2017-08-17 09:44:00,77.7,50.9,30.04,SSW,193,0.0,0.0,39,0.00,,,0.00,239.76,Weather logger V3.0.,2017-08-17 16:44:00,
2017-08-17 09:50:00,78.3,51.3,30.05,South,184,0.0,0.0,39,0.00,,,0.00,254.05,Weather logger V3.0.,2017-08-17 16:50:00,
2017-08-17 09:56:00,78.6,50.2,30.05,South,190,0.0,0.0,37,0.00,,,0.00,271.93,Weather logger V3.0.,2017-08-17 16:56:00,
2017-08-17 10:01:00,79.0,52.0,30.05,South,189,0.0,0.0,39,0.00,,,0.00,282.66,Weather logger V3.0.,2017-08-17 17:01:00,
2017-08-17 10:06:00,79.3,52.3,30.04,South,188,0.2,2.5,39,0.00,,,0.00,287.65,Weather logger V3.0.,2017-08-17 17:06:00,
2017-08-17 10:11:00,79.7,52.7,30.05,South,185,0.0,0.0,39,0.00,,,0.00,311.54,Weather logger V3.0.,2017-08-17 17:11:00,
2017-08-17 10:16:00,79.9,52.2,30.05,South,179,0.0,0.0,38,0.00,,,0.00,341.71,Weather logger V3.0.,2017-08-17 17:16:00,
2017-08-17 10:21:00,80.2,51.6,30.05,South,184,0.9,2.5,37,0.00,,,0.00,350.37,Weather logger V3.0.,2017-08-17 17:21:00,
2017-08-17 10:26:00,80.6,52.7,30.05,South,184,0.0,0.0,38,0.00,,,0.00,376.94,Weather logger V3.0.,2017-08-17 17:26:00,
2017-08-17 10:31:00,81.0,51.6,30.05,South,190,0.0,0.0,36,0.00,,,0.00,125.25,Weather logger V3.0.,2017-08-17 17:31:00,
2017-08-17 10:36:00,81.3,51.8,30.05,SSW,194,0.0,0.0,36,0.00,,,0.00,416.27,Weather logger V3.0.,2017-08-17 17:36:00,
2017-08-17 10:41:00,81.7,51.4,30.05,South,187,0.0,0.0,35,0.00,,,0.00,233.92,Weather logger V3.0.,2017-08-17 17:41:00,
2017-08-17 10:46:00,82.2,52.7,30.05,South,187,0.0,0.0,36,0.00,,,0.00,136.21,Weather logger V3.0.,2017-08-17 17:46:00,
2017-08-17 10:52:00,82.6,52.2,30.05,South,169,0.0,0.0,35,0.00,,,0.00,426.52,Weather logger V3.0.,2017-08-17 17:52:00,
2017-08-17 10:53:00,82.8,52.3,30.05,SSW,195,0.0,0.0,35,0.00,,,0.00,298.92,Weather logger V3.0.,2017-08-17 17:53:00,
2017-08-17 10:59:00,83.3,52.2,30.05,South,191,0.0,0.0,34,0.00,,,0.00,492.06,Weather logger V3.0.,2017-08-17 17:59:00,
2017-08-17 11:04:00,83.7,54.0,30.05,WSW,242,0.2,2.5,36,0.00,,,0.00,512.35,Weather logger V3.0.,2017-08-17 18:04:00,
2017-08-17 11:09:00,83.8,53.4,30.05,SSW,209,0.2,2.5,35,0.00,,,0.00,522.26,Weather logger V3.0.,2017-08-17 18:09:00,
2017-08-17 11:14:00,84.0,54.3,30.05,SSW,198,0.0,0.0,36,0.00,,,0.00,540.93,Weather logger V3.0.,2017-08-17 18:14:00,
2017-08-17 11:20:00,84.4,52.2,30.04,South,188,0.0,0.0,33,0.00,,,0.00,558.44,Weather logger V3.0.,2017-08-17 18:20:00,
2017-08-17 11:25:00,84.7,52.5,30.04,SW,221,0.0,0.0,33,0.00,,,0.00,573.27,Weather logger V3.0.,2017-08-17 18:25:00,
2017-08-17 11:30:00,84.9,52.7,30.04,SSW,196,0.2,2.5,33,0.00,,,0.00,577.14,Weather logger V3.0.,2017-08-17 18:30:00,
2017-08-17 11:35:00,85.1,52.0,30.04,South,186,0.0,0.0,32,0.00,,,0.00,591.19,Weather logger V3.0.,2017-08-17 18:35:00,
2017-08-17 11:41:00,85.5,52.3,30.05,South,189,0.0,0.0,32,0.00,,,0.00,597.98,Weather logger V3.0.,2017-08-17 18:41:00,
2017-08-17 11:46:00,85.8,52.7,30.04,SSW,193,0.0,0.0,32,0.00,,,0.00,607.82,Weather logger V3.0.,2017-08-17 18:46:00,
2017-08-17 11:52:00,86.0,53.6,30.04,SSW,195,0.0,0.0,33,0.00,,,0.00,614.27,Weather logger V3.0.,2017-08-17 18:52:00,
2017-08-17 11:57:00,86.2,52.9,30.04,SSW,198,0.0,0.0,32,0.00,,,0.00,624.05,Weather logger V3.0.,2017-08-17 18:57:00,
2017-08-17 12:03:00,86.4,52.2,30.04,South,186,0.0,0.0,31,0.00,,,0.00,623.91,Weather logger V3.0.,2017-08-17 19:03:00,
2017-08-17 12:08:00,86.5,51.4,30.03,SSW,194,0.0,0.0,30,0.00,,,0.00,628.66,Weather logger V3.0.,2017-08-17 19:08:00,
2017-08-17 12:13:00,86.7,51.6,30.03,South,188,0.0,0.0,30,0.00,,,0.00,638.88,Weather logger V3.0.,2017-08-17 19:13:00,
2017-08-17 12:18:00,87.1,51.1,30.03,SSW,194,0.0,0.0,29,0.00,,,0.00,642.88,Weather logger V3.0.,2017-08-17 19:18:00,
2017-08-17 12:20:00,87.1,51.1,30.03,South,180,0.0,0.0,29,0.00,,,0.00,647.67,Weather logger V3.0.,2017-08-17 19:20:00,
2017-08-17 12:25:00,87.4,51.4,30.03,West,272,0.4,2.5,29,0.00,,,0.00,656.42,Weather logger V3.0.,2017-08-17 19:25:00,
2017-08-17 12:30:00,87.6,51.4,30.02,SSW,194,0.2,2.5,29,0.00,,,0.00,662.16,Weather logger V3.0.,2017-08-17 19:30:00,
2017-08-17 12:35:00,87.8,51.6,30.03,NW,310,0.9,2.5,29,0.00,,,0.00,664.33,Weather logger V3.0.,2017-08-17 19:35:00,
2017-08-17 12:40:00,88.0,51.8,30.02,South,191,0.2,2.5,29,0.00,,,0.00,665.69,Weather logger V3.0.,2017-08-17 19:40:00,
2017-08-17 12:45:00,88.2,52.0,30.02,SSW,203,0.9,2.5,29,0.00,,,0.00,672.31,Weather logger V3.0.,2017-08-17 19:45:00,
2017-08-17 12:50:00,88.3,52.2,30.03,SSW,192,0.0,0.0,29,0.00,,,0.00,677.97,Weather logger V3.0.,2017-08-17 19:50:00,
2017-08-17 12:55:00,88.5,51.3,30.02,South,191,0.0,0.0,28,0.00,,,0.00,687.58,Weather logger V3.0.,2017-08-17 19:55:00,
2017-08-17 13:00:00,88.9,51.6,30.03,SSW,193,0.0,0.0,28,0.00,,,0.00,685.92,Weather logger V3.0.,2017-08-17 20:00:00,
2017-08-17 13:05:00,89.1,51.8,30.01,SSW,199,0.0,0.0,28,0.00,,,0.00,693.45,Weather logger V3.0.,2017-08-17 20:05:00,
2017-08-17 13:10:00,89.6,51.3,30.02,SSW,201,0.0,0.0,27,0.00,,,0.00,696.06,Weather logger V3.0.,2017-08-17 20:10:00,
2017-08-17 13:16:00,90.0,51.6,30.02,SSW,199,0.0,0.0,27,0.00,,,0.00,704.04,Weather logger V3.0.,2017-08-17 20:16:00,
2017-08-17 13:21:00,90.7,50.2,30.02,South,179,0.0,0.0,25,0.00,,,0.00,709.81,Weather logger V3.0.,2017-08-17 20:21:00,
2017-08-17 13:26:00,90.9,50.2,30.01,SSW,199,0.9,2.5,25,0.00,,,0.00,708.69,Weather logger V3.0.,2017-08-17 20:26:00,
2017-08-17 13:31:00,91.0,51.4,30.01,South,187,0.0,0.0,26,0.00,,,0.00,709.16,Weather logger V3.0.,2017-08-17 20:31:00,
2017-08-17 13:36:00,91.6,54.0,30.01,South,188,0.9,2.5,28,0.00,,,0.00,710.15,Weather logger V3.0.,2017-08-17 20:36:00,
2017-08-17 13:41:00,91.6,52.0,30.01,South,169,0.0,0.0,26,0.00,,,0.00,717.21,Weather logger V3.0.,2017-08-17 20:41:00,
2017-08-17 13:46:00,91.8,50.0,30.01,SSW,194,0.0,0.0,24,0.00,,,0.00,715.20,Weather logger V3.0.,2017-08-17 20:46:00,
2017-08-17 13:51:00,91.9,50.0,30.01,SSW,192,0.0,0.0,24,0.00,,,0.00,726.30,Weather logger V3.0.,2017-08-17 20:51:00,
2017-08-17 13:56:00,92.3,52.5,30.00,SSW,198,0.0,0.0,26,0.00,,,0.00,727.12,Weather logger V3.0.,2017-08-17 20:56:00,
2017-08-17 14:01:00,92.7,50.7,30.01,South,191,0.0,0.0,24,0.00,,,0.00,725.52,Weather logger V3.0.,2017-08-17 21:01:00,
2017-08-17 14:06:00,92.8,53.1,30.01,SSW,204,0.0,0.0,26,0.00,,,0.00,723.42,Weather logger V3.0.,2017-08-17 21:06:00,
2017-08-17 14:11:00,93.4,50.2,30.00,SSW,203,0.0,0.0,23,0.00,,,0.00,719.34,Weather logger V3.0.,2017-08-17 21:11:00,
2017-08-17 14:16:00,93.6,52.5,30.00,South,185,0.0,0.0,25,0.00,,,0.00,721.79,Weather logger V3.0.,2017-08-17 21:16:00,
2017-08-17 14:22:00,93.7,50.4,30.00,NE,42,0.2,2.5,23,0.00,,,0.00,722.60,Weather logger V3.0.,2017-08-17 21:22:00,
2017-08-17 14:27:00,93.9,51.8,30.00,South,191,0.4,2.5,24,0.00,,,0.00,722.60,Weather logger V3.0.,2017-08-17 21:27:00,
2017-08-17 14:33:00,94.3,48.4,30.00,South,189,0.0,0.0,21,0.00,,,0.00,729.42,Weather logger V3.0.,2017-08-17 21:33:00,
2017-08-17 14:38:00,94.6,51.3,29.99,SSW,207,0.4,2.5,23,0.00,,,0.00,724.30,Weather logger V3.0.,2017-08-17 21:38:00,
2017-08-17 14:43:00,95.0,49.1,29.99,West,276,0.2,2.5,21,0.00,,,0.00,727.08,Weather logger V3.0.,2017-08-17 21:43:00,
2017-08-17 14:48:00,95.2,50.4,29.99,South,191,0.0,0.0,22,0.00,,,0.00,722.43,Weather logger V3.0.,2017-08-17 21:48:00,
2017-08-17 14:53:00,95.7,48.4,29.99,South,182,0.0,0.0,20,0.00,,,0.00,733.06,Weather logger V3.0.,2017-08-17 21:53:00,
2017-08-17 14:58:00,96.1,42.8,29.99,SSW,193,0.0,0.0,16,0.00,,,0.00,730.82,Weather logger V3.0.,2017-08-17 21:58:00,
2017-08-17 15:03:00,96.3,39.4,29.99,South,191,0.0,0.0,14,0.00,,,0.00,734.18,Weather logger V3.0.,2017-08-17 22:03:00,
2017-08-17 15:08:00,96.4,47.5,29.98,South,171,0.0,0.0,19,0.00,,,0.00,729.19,Weather logger V3.0.,2017-08-17 22:08:00,
2017-08-17 15:13:00,96.6,46.2,29.98,South,188,0.0,0.0,18,0.00,,,0.00,731.53,Weather logger V3.0.,2017-08-17 22:13:00,
2017-08-17 15:19:00,97.0,48.0,29.98,South,187,0.2,2.5,19,0.00,,,0.00,733.40,Weather logger V3.0.,2017-08-17 22:19:00,
2017-08-17 15:24:00,97.2,31.6,29.98,South,190,0.0,0.0,10,0.00,,,0.00,730.14,Weather logger V3.0.,2017-08-17 22:24:00,
2017-08-17 15:29:00,97.2,31.6,29.98,SSE,157,0.2,2.5,10,0.00,,,0.00,728.30,Weather logger V3.0.,2017-08-17 22:29:00,
2017-08-17 15:34:00,97.2,34.0,29.98,SSW,194,0.0,0.0,11,0.00,,,0.00,722.50,Weather logger V3.0.,2017-08-17 22:34:00,
2017-08-17 15:39:00,97.2,31.6,29.98,South,180,0.0,0.0,10,0.00,,,0.00,721.04,Weather logger V3.0.,2017-08-17 22:39:00,
2017-08-17 15:44:00,97.2,34.0,29.98,South,169,0.9,2.5,11,0.00,,,0.00,714.08,Weather logger V3.0.,2017-08-17 22:44:00,
2017-08-17 15:49:00,96.8,31.3,29.98,South,174,0.0,0.0,10,0.00,,,0.00,712.79,Weather logger V3.0.,2017-08-17 22:49:00,
2017-08-17 15:55:00,96.6,31.3,29.97,South,190,0.0,0.0,10,0.00,,,0.00,711.88,Weather logger V3.0.,2017-08-17 22:55:00,
2017-08-17 16:00:00,96.4,31.1,29.97,South,189,0.0,0.0,10,0.00,,,0.00,702.14,Weather logger V3.0.,2017-08-17 23:00:00,
2017-08-17 16:05:00,96.3,30.9,29.96,SE,142,1.8,2.5,10,0.00,,,0.00,700.71,Weather logger V3.0.,2017-08-17 23:05:00,
2017-08-17 16:10:00,96.1,30.7,29.97,South,184,0.0,0.0,10,0.00,,,0.00,696.78,Weather logger V3.0.,2017-08-17 23:10:00,
2017-08-17 16:15:00,95.9,30.7,29.97,SSE,158,1.3,2.5,10,0.00,,,0.00,689.89,Weather logger V3.0.,2017-08-17 23:15:00,
2017-08-17 16:20:00,96.1,30.7,29.97,SSW,201,0.0,0.0,10,0.00,,,0.00,685.13,Weather logger V3.0.,2017-08-17 23:20:00,
2017-08-17 16:25:00,95.9,30.7,29.96,SSE,156,0.4,2.5,10,0.00,,,0.00,678.48,Weather logger V3.0.,2017-08-17 23:25:00,
2017-08-17 16:30:00,96.1,30.7,29.96,South,179,0.2,2.5,10,0.00,,,0.00,674.31,Weather logger V3.0.,2017-08-17 23:30:00,
2017-08-17 16:36:00,96.1,33.3,29.96,South,189,0.2,2.5,11,0.00,,,0.00,670.07,Weather logger V3.0.,2017-08-17 23:36:00,
2017-08-17 16:41:00,96.1,30.7,29.96,South,189,0.0,0.0,10,0.00,,,0.00,663.04,Weather logger V3.0.,2017-08-17 23:41:00,
2017-08-17 16:46:00,96.3,30.9,29.95,South,182,0.2,2.5,10,0.00,,,0.00,653.50,Weather logger V3.0.,2017-08-17 23:46:00,
2017-08-17 16:51:00,96.1,30.7,29.95,SSW,195,0.0,0.0,10,0.00,,,0.00,646.28,Weather logger V3.0.,2017-08-17 23:51:00,
2017-08-17 16:56:00,96.3,30.9,29.96,South,187,0.0,0.0,10,0.00,,,0.00,635.38,Weather logger V3.0.,2017-08-17 23:56:00,
2017-08-17 17:01:00,96.3,30.9,29.95,South,186,0.0,0.0,10,0.00,,,0.00,628.39,Weather logger V3.0.,2017-08-18 00:01:00,
2017-08-17 17:06:00,95.9,30.7,29.95,South,188,0.0,0.0,10,0.00,,,0.00,611.96,Weather logger V3.0.,2017-08-18 00:06:00,
2017-08-17 17:11:00,95.7,39.0,29.95,South,189,0.0,0.0,14,0.00,,,0.00,161.19,Weather logger V3.0.,2017-08-18 00:11:00,
2017-08-17 17:16:00,95.2,42.1,29.95,South,185,0.0,0.0,16,0.00,,,0.00,64.14,Weather logger V3.0.,2017-08-18 00:16:00,
2017-08-17 17:21:00,94.6,50.0,29.94,SSW,195,0.0,0.0,22,0.00,,,0.00,57.50,Weather logger V3.0.,2017-08-18 00:21:00,
2017-08-17 17:26:00,94.1,49.5,29.94,South,187,0.0,0.0,22,0.00,,,0.00,55.03,Weather logger V3.0.,2017-08-18 00:26:00,
2017-08-17 17:32:00,93.6,49.1,29.94,SSE,155,0.0,0.0,22,0.00,,,0.00,56.33,Weather logger V3.0.,2017-08-18 00:32:00,
2017-08-17 17:37:00,92.8,48.6,29.94,South,188,0.0,0.0,22,0.00,,,0.00,55.51,Weather logger V3.0.,2017-08-18 00:37:00,
2017-08-17 17:43:00,92.7,48.4,29.94,SW,219,0.0,0.0,22,0.00,,,0.00,53.55,Weather logger V3.0.,2017-08-18 00:43:00,
2017-08-17 17:48:00,92.1,49.1,29.93,South,189,0.0,0.0,23,0.00,,,0.00,51.60,Weather logger V3.0.,2017-08-18 00:48:00,
2017-08-17 17:53:00,91.9,46.6,29.94,South,190,0.0,0.0,21,0.00,,,0.00,48.60,Weather logger V3.0.,2017-08-18 00:53:00,
2017-08-17 17:58:00,91.6,46.2,29.94,South,188,0.0,0.0,21,0.00,,,0.00,46.78,Weather logger V3.0.,2017-08-18 00:58:00,
2017-08-17 18:03:00,91.4,44.8,29.94,SSW,198,0.0,0.0,20,0.00,,,0.00,45.35,Weather logger V3.0.,2017-08-18 01:03:00,
2017-08-17 18:08:00,91.0,45.7,29.94,South,188,0.0,0.0,21,0.00,,,0.00,44.26,Weather logger V3.0.,2017-08-18 01:08:00,
2017-08-17 18:13:00,90.9,44.2,29.94,South,178,0.0,0.0,20,0.00,,,0.00,43.35,Weather logger V3.0.,2017-08-18 01:13:00,
2017-08-17 18:18:00,90.7,46.8,29.94,South,188,0.0,0.0,22,0.00,,,0.00,42.22,Weather logger V3.0.,2017-08-18 01:18:00,
2017-08-17 18:23:00,90.3,45.1,29.94,South,188,0.0,0.0,21,0.00,,,0.00,41.27,Weather logger V3.0.,2017-08-18 01:23:00,
2017-08-17 18:28:00,90.1,47.5,29.94,South,190,0.0,0.0,23,0.00,,,0.00,40.18,Weather logger V3.0.,2017-08-18 01:28:00,
2017-08-17 18:36:00,89.8,45.9,29.94,South,181,0.0,0.0,22,0.00,,,0.00,38.79,Weather logger V3.0.,2017-08-18 01:36:00,
2017-08-17 18:41:00,89.6,49.3,29.94,South,185,0.0,0.0,25,0.00,,,0.00,37.75,Weather logger V3.0.,2017-08-18 01:41:00,
2017-08-17 18:46:00,89.2,50.9,29.95,South,190,0.0,0.0,27,0.00,,,0.00,36.49,Weather logger V3.0.,2017-08-18 01:46:00,
2017-08-17 18:52:00,89.1,50.7,29.94,South,186,0.0,0.0,27,0.00,,,0.00,35.15,Weather logger V3.0.,2017-08-18 01:52:00,
2017-08-17 18:57:00,88.9,52.5,29.93,South,188,0.0,0.0,29,0.00,,,0.00,33.80,Weather logger V3.0.,2017-08-18 01:57:00,
2017-08-17 19:02:00,88.5,50.4,29.94,South,187,0.0,0.0,27,0.00,,,0.00,32.28,Weather logger V3.0.,2017-08-18 02:02:00,
2017-08-17 19:07:00,88.3,52.2,29.94,South,189,0.0,0.0,29,0.00,,,0.00,30.33,Weather logger V3.0.,2017-08-18 02:07:00,
2017-08-17 19:12:00,88.2,53.8,29.94,South,190,0.0,0.0,31,0.00,,,0.00,27.98,Weather logger V3.0.,2017-08-18 02:12:00,
2017-08-17 19:17:00,87.8,55.2,29.94,South,188,0.0,0.0,33,0.00,,,0.00,25.34,Weather logger V3.0.,2017-08-18 02:17:00,
2017-08-17 19:22:00,87.4,55.8,29.94,South,188,0.0,0.0,34,0.00,,,0.00,23.03,Weather logger V3.0.,2017-08-18 02:22:00,
2017-08-17 19:27:00,87.1,57.7,29.94,South,187,0.0,0.0,37,0.00,,,0.00,20.08,Weather logger V3.0.,2017-08-18 02:27:00,
2017-08-17 19:32:00,86.4,57.7,29.94,South,190,0.0,0.0,38,0.00,,,0.00,17.57,Weather logger V3.0.,2017-08-18 02:32:00,
2017-08-17 19:37:00,86.0,58.3,29.94,South,189,0.0,0.0,39,0.00,,,0.00,12.21,Weather logger V3.0.,2017-08-18 02:37:00,
2017-08-17 19:42:00,85.5,59.2,29.95,South,189,0.0,0.0,41,0.00,,,0.00,9.33,Weather logger V3.0.,2017-08-18 02:42:00,
2017-08-17 19:48:00,84.9,60.6,29.94,South,189,0.0,0.0,44,0.00,,,0.00,6.64,Weather logger V3.0.,2017-08-18 02:48:00,
2017-08-17 19:53:00,84.2,61.2,29.94,South,189,0.0,0.0,46,0.00,,,0.00,4.61,Weather logger V3.0.,2017-08-18 02:53:00,
2017-08-17 19:58:00,83.5,59.4,29.94,South,189,0.0,0.0,44,0.00,,,0.00,1.90,Weather logger V3.0.,2017-08-18 02:58:00,
2017-08-17 20:03:00,82.8,58.1,29.94,South,191,0.0,0.0,43,0.00,,,0.00,0.00,Weather logger V3.0.,2017-08-18 03:03:00,
2017-08-17 20:08:00,82.0,58.6,29.94,South,190,0.0,0.0,45,0.00,,,0.00,0.00,Weather logger V3.0.,2017-08-18 03:08:00,
2017-08-17 20:14:00,81.7,60.1,29.95,South,189,0.0,0.0,48,0.00,,,0.00,0.00,Weather logger V3.0.,2017-08-18 03:14:00,